Miscellaneous Local Product
Issued by NWS North Platte, NE

Home | Current Version | Previous Version | Text Only | Print | Product List | Glossary On
Versions: 1 2 3 4 5 6 7 8 9 10 11 12 13 14 15 16 17 18 19 20 21 22 23 24 25 26 27 28 29 30 31 32 33 34 35 36 37 38 39 40 41 42 43 44 45 46 47 48 49 50
000
AXUS43 KLBF 241010
MISLBF


WESTERN AND NORTH CENTRAL NEBRASKA HOURLY WEATHER ROUNDUP
NATIONAL WEATHER SERVICE NORTH PLATTE NE
500 AM CDT THU JUL 24 2014

***STATIONS NOT REPORTING VARIABLES SUCH AS SKY/WEATHER OR
PRESSURE ARE PROVIDED BY THE NEBRASKA DEPARTMENT OF
ROADS...RAWS...AND APRS NETWORKS...AND ARE NOT UNDER
NATIONAL WEATHER SERVICE QUALITY CONTROL***

...OBSERVATIONS IN AND NEAR THE EASTERN PANHANDLE OF NEBRASKA...

CITY           SKY/WX    TMP DP  RH WIND       PRES   REMARKS
PINE RIDGE     PTCLDY    71  64  78 S23G37    29.94F
CHADRON        MOCLDY    72  65  78 S13G28    29.97F
ALLIANCE       PTCLDY    65  63  93 SE13      30.04F
SIDNEY         PTCLDY    70  64  81 S15       30.09F
WHITECLAY        N/A     71  63  75 S17         N/A
RUSHVILLE        N/A     70  67  88 S17         N/A
GORDON           N/A     73  68  86 S16         N/A
CRESCENT LAKE    N/A     66  63  90 SE9G16      N/A
LISCO            N/A     72  66  80 E15         N/A
BIG SPRINGS      N/A     68  65  89 S12         N/A
$$

...OBSERVATIONS IN NORTH CENTRAL NEBRASKA...

CITY           SKY/WX    TMP DP  RH WIND       PRES   REMARKS
VALENTINE      CLEAR     65  60  84 SE7       30.04F
THEDFORD       CLEAR     67  60  76 S12       30.07F
AINSWORTH      CLEAR     65  58  79 SE14      30.07F
O`NEILL        PTCLDY    65  58  78 SE10      30.09F
ORD            MOCLDY    63  59  87 SE3       30.09F
BROKEN BOW     CLEAR     65  60  84 S9        30.09F
BROWNLEE         N/A     66  61  85 SE14        N/A
SPRINGVIEW       N/A     67  60  77 E5          N/A
DUNNING          N/A     67  62  84 S6          N/A
ROSE             N/A     67  64  90 E9          N/A
NEWPORT          N/A     67  62  83 S9          N/A
SARGENT          N/A     63  60  88 CALM        N/A
COMSTOCK         N/A     69  65  88 S8          N/A
CHAMBERS         N/A     63  60  88 S3          N/A
EWING            N/A     63  59  87 CALM        N/A
$$

...OBSERVATIONS IN SOUTHWEST NEBRASKA AND FAR NORTHEAST COLORADO...

CITY           SKY/WX    TMP DP  RH WIND       PRES   REMARKS
WRAY             N/A     71  67  88 NE6       30.09F
HOLYOKE        FAIR      66  63  88 S6        30.08F
IMPERIAL       CLEAR     68  63  84 S13       30.07F
OGALLALA       PTCLDY    65  61  87 SE7       30.06F
NORTH PLATTE   CLEAR     67  60  78 SE8       30.08F
MCCOOK         CLEAR     66  62  87 E7        30.10F
LEXINGTON      CLEAR     64  60  87 SE6       30.10F
PAXTON           N/A     67  62  84 S10         N/A
SUTHERLAND       N/A     68  65  89 S10         N/A
BRADY            N/A     64  59  84 CALM        N/A
GOTHENBURG       N/A     64  57  78 SE3         N/A
CALLAWAY         N/A     62  60  92 S10         N/A
$$

...NORTH PLATTE AREA...

CITY           SKY/WX    TMP DP  RH WIND       PRES   REMARKS
AIRPORT        CLEAR     67  60  78 SE8       30.08F
$$

...SOME WEATHER OBSERVATIONS FROM AROUND THE REGION...

CITY           SKY/WX    TMP DP  RH WIND       PRES   REMARKS
DENVER         PTCLDY    75  47  36 S16       30.14F
LARAMIE        MOCLDY    76  37  24 W17G28    30.28S
CHEYENNE       MOCLDY    62  48  60 SW12      30.19S
SCOTTSBLUFF    PTCLDY    67  64  90 E12       30.02F
RAPID CITY     CLOUDY    65  63  93 SE7       29.92F
PIERRE         CLOUDY    70  59  68 SE24      29.97F
WINNER         FAIR      70  58  65 SE14      30.03F
SIOUX FALLS    MOCLDY    65  56  72 SE9       30.13F
OMAHA          PTCLDY    68  59  73 SE7       30.13F
GRAND ISLAND   CLEAR     64  60  87 S6        30.11F
KANSAS CITY    PTCLDY    68  59  73 E9        30.12S
WICHITA        PTCLDY    70  65  84 SE6       30.09S
HAYS           CLEAR     66  57  72 E3        30.10F
LIBERAL        CLEAR     72  66  83 SE6       30.14F
GOODLAND       CLEAR     68  66  93 S14       30.12F
$$



USA.gov is the U.S. government's official web portal to all federal, state and local government web resources and services.